McMurdo%20Station (Antarctica)  www.meteorete.it

situazione meteo Attuale :16:20:12
Temperatura : -15.9
Umidita :64.2 %
Pressione :978.4 hPa
Vel vento :5.0 Km
Direz. :NE
Precip.(mm.):0.0
   

Condizioni Meteo per: McMurdo Station, Antarctica

aggiornamento precedente: 22.05.2017 19:37
prossimo aggiornamento: 23.05.2017 08:00
Latitude: 77.85° S
Longitude: 166.68° E
Altitude: -6 m

hPa
mm °C
    Temperatura Precipitazioni Pressione vento Umidità Nuvoloso Nebbia
Keskiyön aurinko OGGI
18:00   978.4 hPa 5.0 m/s 64% 100%
20:00 0.2 mm 979.2 hPa 5.0 m/s 65% 99%
22:00 0.2 mm 980.6 hPa 6.3 m/s 66% 98%
Keskiyön aurinko DOMANI
00:00 0.2 mm 982.0 hPa 6.6 m/s 66% 98%
02:00   982.9 hPa 6.5 m/s 66% 92%
04:00   984.1 hPa 6.7 m/s 63% 80%
06:00   984.9 hPa 5.7 m/s 62% 56%
08:00   986.3 hPa 6.0 m/s 60% 32%
10:00   988.2 hPa 5.6 m/s 58% 80%
12:00   989.5 hPa 5.0 m/s 61% 93%
14:00   990.6 hPa 5.2 m/s 58% 91%
16:00   992.2 hPa 5.1 m/s 53% 60%
18:00   993.9 hPa 4.6 m/s 54% 70%
20:00   995.1 hPa 3.9 m/s 49% 51%
22:00   996.3 hPa 2.6 m/s 46% 63%
Keskiyön aurinko Giovedi 25.05.2017
00:00   997.5 hPa 4.3 m/s 54% 85%
02:00   998.5 hPa 3.9 m/s 53% 52%
04:00   999.5 hPa 3.2 m/s 50% 46%
06:00   1000.6 hPa 2.6 m/s 45% 35%
08:00   1001.7 hPa 2.8 m/s 43% 33%
10:00   1002.8 hPa 2.7 m/s 40% 10%
12:00   1003.8 hPa 3.1 m/s 45% 56%
14:00   1004.4 hPa 2.4 m/s 44% 81%
16:00   1005.0 hPa 2.8 m/s 46% 77%
18:00   1005.5 hPa 3.5 m/s 47% 65%
20:00   1005.7 hPa 3.2 m/s 48% 92%
22:00   1006.0 hPa 2.0 m/s 49% 82%
Keskiyön aurinko Venerdi 26.05.2017
00:00   1005.8 hPa 1.9 m/s 45% 35%
02:00   1005.6 hPa 1.9 m/s 44% 36%
04:00   1005.2 hPa 2.1 m/s 44% 77%
06:00   1004.9 hPa 3.8 m/s 53% 77%
18:00   1002.2 hPa 3.5 m/s 57% 19%
Keskiyön aurinko Sabato 27.05.2017
00:00   1000.5 hPa 4.6 m/s 60% 89%
06:00   998.3 hPa 3.1 m/s 61% 97%
12:00   997.0 hPa 3.3 m/s 61% 99%
18:00   996.3 hPa 3.2 m/s 67% 98%
Keskiyön aurinko Domenica 28.05.2017
00:00   997.4 hPa 3.4 m/s 52% 93%
06:00   999.6 hPa 4.1 m/s 57% 55%
12:00   1001.7 hPa 3.2 m/s 51% 63%
18:00   1000.8 hPa 3.8 m/s 52% 48%
Keskiyön aurinko Lunedi 29.05.2017
00:00   998.4 hPa 0.7 m/s 66% 74%
06:00   994.6 hPa 2.6 m/s 73% 90%
12:00   991.9 hPa 3.3 m/s 67% 88%
18:00   988.7 hPa 4.2 m/s 64% 83%
Keskiyön aurinko Martedi 30.05.2017
00:00   985.6 hPa 4.0 m/s 66% 79%
06:00   983.5 hPa 4.2 m/s 73% 41%
12:00   983.3 hPa 4.9 m/s 58% 23%
18:00   982.6 hPa 5.2 m/s 42% 0%
Keskiyön aurinko Mercoledi 31.05.2017
00:00   980.8 hPa 2.1 m/s 40% 23%
06:00   978.9 hPa 2.1 m/s 36% 7%
12:00   978.5 hPa 6.2 m/s 52% 94%
18:00   978.7 hPa 5.5 m/s 51% 81%
Keskiyön aurinko Giovedi 01.06.2017
00:00   979.8 hPa 4.7 m/s 53% 89%
06:00   980.8 hPa 5.1 m/s 51% 89%
12:00   982.0 hPa 3.7 m/s 48% 83%
18:00   982.3 hPa 2.5 m/s 44% 30%
Keskiyön aurinko Venerdi 02.06.2017
00:00   982.0 hPa 1.8 m/s 43% 89%